Location: Caltech
(34.1382°N, 118.1253°W)
Time: 02:37:09
(UTC-07:00)

MaSat-1 - Visible Passes

Search period start: 21 April 2014 00:00
Search period end: 01 May 2014 00:00
Orbit: 290 x 866 km, 69.5° (Epoch: 21 April)

Date Brightness Start Highest point End Pass type
(mag) Time Alt. Az. Time Alt. Az. Time Alt. Az.
21 Apr ? 20:56:06 10° SSW 20:59:10 84° ESE 21:01:50 10° NNE visible
22 Apr ? 21:00:08 10° SW 21:03:00 43° WNW 21:05:33 10° N visible
23 Apr ? 21:04:15 10° WSW 21:06:36 22° WNW 21:08:44 10° N visible
24 Apr ? 05:30:17 10° NNE 05:32:19 15° ENE 05:34:34 10° E visible
24 Apr ? 21:08:44 10° W 21:09:58 12° WNW 21:11:08 10° NW visible
25 Apr ? 05:32:48 10° N 05:35:36 25° ENE 05:38:50 10° ESE visible
26 Apr ? 05:35:25 10° N 05:38:36 43° ENE 05:42:23 10° SE visible
27 Apr ? 05:37:58 10° NNW 05:41:20 76° ENE 05:45:24 10° SSE visible
29 Apr ? 04:06:38 10° NE 04:07:51 11° ENE 04:09:06 10° E visible
30 Apr ? 04:07:25 10° NNE 04:09:53 18° ENE 04:12:37 10° ESE visible
